FW7092 Weather Reports


time (UTC)temp
F
wind
direction
speed
knots
gust
knots
rain 1hr
in
rain 24hr
in
rain mn
in
humidity
%
barometer
mb
20210518212527 75 50 0.9 6.1 0.00 0.00 0.00 47 1024.8
20210518212027 76 80 2.6 8.7 0.00 0.00 0.00 47 1024.5
20210518211519 77 75 3.5 8.7 0.00 0.00 0.00 46 1024.8
20210518211015 78 69 3.5 8.7 0.00 0.00 0.00 46 1024.8
20210518210515 79 346 2.6 6.1 0.00 0.00 0.00 47 1024.8
20210518210011 78 122 3.5 4.3 0.00 0.00 0.00 47 1025.1
20210518205505 77 77 3.5 8.7 0.00 0.00 0.00 47 1024.8
20210518205003 77 104 1.7 4.3 0.00 0.00 0.00 48 1024.8
20210518204459 77 57 0.9 4.3 0.00 0.00 0.00 49 1025.1
20210518203959 77 111 1.7 4.3 0.00 0.00 0.00 49 1024.8
20210518203455 77 107 3.5 6.1 0.00 0.00 0.00 49 1024.8
20210518202953 77 95 6.1 8.7 0.00 0.00 0.00 48 1025.1
20210518202445 77 117 2.6 8.7 0.00 0.00 0.00 48 1025.1
20210518201941 78 141 0.0 6.1 0.00 0.00 0.00 48 1025.1
20210518201440 80 67 4.3 4.3 0.00 0.00 0.00 44 1025.1
20210518200935 80 185 1.7 2.6 0.00 0.00 0.00 44 1025.1
20210518200432 80 205 0.0 0.0 0.00 0.00 0.00 44 1025.1
20210518195927 81 191 1.7 4.3 0.00 0.00 0.00 45 1025.5
20210518195426 80 249 0.0 2.6 0.00 0.00 0.00 45 1025.5
20210518194925 80 231 0.0 2.6 0.00 0.00 0.00 45 1025.1
20210518194419 80 204 0.0 2.6 0.00 0.00 0.00 46 1025.5
20210518193916 79 228 3.5 4.3 0.00 0.00 0.00 45 1025.5
20210518193413 79 52 0.0 4.3 0.00 0.00 0.00 47 1025.5
20210518192911 79 248 0.0 2.6 0.00 0.00 0.00 46 1025.8
20210518192409 80 215 2.6 4.3 0.00 0.00 0.00 43 1025.8
20210518191906 81 198 3.5 13.0 0.00 0.00 0.00 41 1025.8
20210518191401 80 150 0.9 8.7 0.00 0.00 0.00 45 1025.8
20210518190855 80 214 2.6 8.7 0.00 0.00 0.00 43 1025.8
20210518190354 80 194 4.3 6.1 0.00 0.00 0.00 42 1025.8
20210518185844 80 227 12.2 14.8 0.00 0.00 0.00 44 1025.8
20210518185339 79 181 0.0 4.3 0.00 0.00 0.00 44 1025.8
20210518184837 80 144 0.0 2.6 0.00 0.00 0.00 46 1026.3
20210518184335 79 161 1.7 2.6 0.00 0.00 0.00 44 1025.8
20210518183834 79 196 0.0 2.6 0.00 0.00 0.00 46 1025.8
20210518183329 78 163 0.9 4.3 0.00 0.00 0.00 45 1026.3
20210518182821 77 108 0.0 4.3 0.00 0.00 0.00 45 1026.3
20210518182320 78 200 2.6 8.7 0.00 0.00 0.00 46 1026.3
20210518181819 78 46 1.7 4.3 0.00 0.00 0.00 44 1026.3
20210518181315 78 97 1.7 2.6 0.00 0.00 0.00 47 1026.3
20210518180813 78 196 4.3 4.3 0.00 0.00 0.00 46 1026.3
20210518180308 78 107 0.0 2.6 0.00 0.00 0.00 48 1026.3
20210518175804 78 143 1.7 4.3 0.00 0.00 0.00 47 1026.6
20210518175300 78 207 0.0 4.3 0.00 0.00 0.00 48 1026.6
20210518174800 78 225 0.0 2.6 0.00 0.00 0.00 46 1026.6
20210518174252 78 80 0.9 6.1 0.00 0.00 0.00 47 1026.6
20210518173748 77 143 0.0 4.3 0.00 0.00 0.00 46 1026.6
20210518173248 77 191 1.7 4.3 0.00 0.00 0.00 45 1026.6
20210518172741 77 43 0.9 4.3 0.00 0.00 0.00 47 1026.9
20210518172241 77 208 0.9 4.3 0.00 0.00 0.00 44 1026.9
20210518171739 78 42 0.9 8.7 0.00 0.00 0.00 49 1026.9
20210518171236 78 164 1.7 4.3 0.00 0.00 0.00 48 1026.9
20210518170732 78 148 1.7 4.3 0.00 0.00 0.00 47 1026.9
20210518170228 77 98 0.9 4.3 0.00 0.00 0.00 45 1026.9
20210518165726 77 200 0.0 4.3 0.00 0.00 0.00 48 1026.9
20210518165223 78 130 0.0 2.6 0.00 0.00 0.00 47 1026.9
20210518164717 77 137 0.0 2.6 0.00 0.00 0.00 45 1026.9
20210518164213 78 161 0.0 2.6 0.00 0.00 0.00 51 1027.3
20210518163712 77 245 0.0 4.3 0.00 0.00 0.00 47 1027.3
20210518163210 77 204 0.9 2.6 0.00 0.00 0.00 48 1027.3
20210518162709 77 133 0.9 6.1 0.00 0.00 0.00 48 1026.9
20210518162202 76 227 3.5 6.1 0.00 0.00 0.00 46 1026.9
20210518161700 76 191 1.7 2.6 0.00 0.00 0.00 48 1027.3
20210518161155 76 207 0.0 4.3 0.00 0.00 0.00 50 1027.3
20210518160652 76 111 1.7 6.1 0.00 0.00 0.00 48 1027.3
20210518160146 76 172 0.0 4.3 0.00 0.00 0.00 49 1027.3
20210518155642 77 197 1.7 2.6 0.00 0.00 0.00 49 1027.3
20210518155137 76 42 0.9 4.3 0.00 0.00 0.00 46 1027.3
20210518154634 76 108 0.0 2.6 0.00 0.00 0.00 48 1027.3
20210518154129 76 194 0.0 4.3 0.00 0.00 0.00 47 1027.3
20210518153620 76 156 0.0 0.0 0.00 0.00 0.00 49 1027.6
20210518153118 75 69 3.5 4.3 0.00 0.00 0.00 47 1027.3
20210518152614 76 43 1.7 4.3 0.00 0.00 0.00 51 1027.3
20210518152113 75 72 6.1 6.1 0.00 0.00 0.00 49 1027.3
20210518151609 75 130 0.0 2.6 0.00 0.00 0.00 49 1027.3
20210518151107 75 91 2.6 6.1 0.00 0.00 0.00 50 1027.3
20210518150604 75 234 0.0 2.6 0.00 0.00 0.00 50 1027.3
20210518150059 74 134 0.0 4.3 0.00 0.00 0.00 51 1027.6
20210518145550 74 129 1.7 6.1 0.00 0.00 0.00 51 1027.3
20210518145049 75 105 2.6 4.3 0.00 0.00 0.00 54 1027.3
20210518144547 73 108 0.9 6.1 0.00 0.00 0.00 54 1027.3
20210518144040 74 44 0.0 2.6 0.00 0.00 0.00 54 1027.3
20210518143540 73 110 0.9 2.6 0.00 0.00 0.00 57 1027.6
20210518143033 73 73 2.6 6.1 0.00 0.00 0.00 56 1027.6
20210518142531 72 359 1.7 4.3 0.00 0.00 0.00 57 1027.3
20210518142028 72 63 2.6 4.3 0.00 0.00 0.00 58 1027.3
20210518141523 72 42 2.6 4.3 0.00 0.00 0.00 59 1027.3
20210518141021 72 62 3.5 6.1 0.00 0.00 0.00 60 1027.3
20210518140521 71 96 0.9 4.3 0.00 0.00 0.00 60 1027.6
20210518140016 71 56 4.3 6.1 0.00 0.00 0.00 60 1027.6
20210518135511 73 105 0.9 2.6 0.00 0.00 0.00 59 1027.6
20210518135007 72 112 0.9 4.3 0.00 0.00 0.00 62 1027.6
20210518134503 71 128 0.0 2.6 0.00 0.00 0.00 61 1027.6
20210518134002 69 70 2.6 4.3 0.00 0.00 0.00 64 1027.3
20210518133451 70 108 0.0 4.3 0.00 0.00 0.00 65 1027.6
20210518132947 69 113 1.7 4.3 0.00 0.00 0.00 67 1027.3
20210518132443 69 158 0.0 2.6 0.00 0.00 0.00 66 1027.6
20210518131942 68 66 2.6 6.1 0.00 0.00 0.00 68 1027.6
20210518131438 68 65 2.6 4.3 0.00 0.00 0.00 69 1027.3
20210518130933 68 117 0.9 4.3 0.00 0.00 0.00 69 1027.6
20210518130431 68 125 0.0 2.6 0.00 0.00 0.00 71 1027.3
20210518125929 67 102 1.7 2.6 0.00 0.00 0.00 71 1027.6
20210518125423 66 110 0.9 2.6 0.00 0.00 0.00 74 1027.3
20210518124918 66 43 0.9 2.6 0.00 0.00 0.00 75 1027.3
20210518124408 65 115 0.9 4.3 0.00 0.00 0.00 76 1027.6
20210518123907 65 163 0.9 4.3 0.00 0.00 0.00 76 1027.6
20210518123407 65 203 0.0 2.6 0.00 0.00 0.00 78 1027.3
20210518122906 64 68 0.0 2.6 0.00 0.00 0.00 79 1027.6
20210518122401 63 87 1.7 2.6 0.00 0.00 0.00 80 1027.3
20210518121859 62 94 0.9 2.6 0.00 0.00 0.00 80 1027.3
20210518121352 62 77 0.0 4.3 0.00 0.00 0.00 81 1027.3
20210518120849 62 141 0.0 2.6 0.00 0.00 0.00 82 1027.3
20210518120345 61 111 0.9 2.6 0.00 0.00 0.00 81 1026.9
20210518115842 61 73 0.0 0.0 0.00 0.00 0.00 84 1027.3
20210518115337 59 79 0.0 0.0 0.00 0.00 0.00 88 1027.3
20210518114833 57 112 0.0 0.0 0.00 0.00 0.00 94 1027.3
20210518114332 55 82 0.0 0.0 0.00 0.00 0.00 96 1026.6
20210518113830 55 108 0.0 0.0 0.00 0.00 0.00 98 1026.9
20210518113327 54 108 0.0 0.0 0.00 0.00 0.00 99 1026.9
20210518112815 53 108 0.0 0.0 0.00 0.00 0.00 99 1026.9
20210518112311 53 108 0.0 0.0 0.00 0.00 0.00 99 1026.6
20210518111809 52 108 0.0 0.0 0.00 0.00 0.00 99 1026.6
20210518111305 51 108 0.0 0.0 0.00 0.00 0.00 99 1026.6
20210518110801 51 79 0.0 0.0 0.00 0.00 0.00 99 1026.6
20210518110259 50 157 0.0 0.0 0.00 0.00 0.00 99 1026.6
20210518105759 50 171 0.0 0.0 0.00 0.00 0.00 99 1026.6
20210518105255 50 139 0.0 0.0 0.00 0.00 0.00 99 1026.3
20210518104750 50 157 0.0 0.0 0.00 0.00 0.00 99 1026.3
20210518104246 50 151 0.0 0.0 0.00 0.00 0.00 99 1026.3
20210518103742 49 121 0.0 0.0 0.00 0.00 0.00 99 1025.8
20210518103237 49 170 0.0 0.0 0.00 0.00 0.00 99 1025.8
20210518102734 49 171 0.0 0.0 0.00 0.00 0.00 99 1025.8
20210518102232 49 177 0.0 0.0 0.00 0.00 0.00 99 1026.3
20210518101729 47 200 0.0 0.0 0.00 0.00 0.00 99 1025.8
20210518101228 46 200 0.0 0.0 0.00 0.00 0.00 99 1025.8
20210518100721 46 200 0.0 0.0 0.00 0.00 0.00 99 1025.8
20210518100220 46 200 0.0 0.0 0.00 0.00 0.00 99 1025.8
20210518095718 47 200 0.0 0.0 0.00 0.00 0.00 99 1025.8
20210518095217 48 200 0.0 0.0 0.00 0.00 0.00 99 1025.5
20210518094713 48 200 0.0 0.0 0.00 0.00 0.00 99 1025.5
20210518094209 48 200 0.0 0.0 0.00 0.00 0.00 99 1025.8
20210518093703 47 200 0.0 0.0 0.00 0.00 0.00 99 1025.5
20210518093156 46 200 0.0 0.0 0.00 0.00 0.00 99 1025.5
20210518092656 46 200 0.0 0.0 0.00 0.00 0.00 99 1025.5
20210518092149 46 200 0.0 0.0 0.00 0.00 0.00 99 1025.5
20210518091648 46 200 0.0 0.0 0.00 0.00 0.00 99 1025.5
20210518091146 47 200 0.0 0.0 0.00 0.00 0.00 99 1025.5
20210518090641 47 200 0.0 0.0 0.00 0.00 0.00 99 1025.5
20210518090137 48 110 0.0 0.0 0.00 0.00 0.00 99 1025.5
20210518085632 50 110 0.0 0.0 0.00 0.00 0.00 99 1025.8
20210518085124 50 110 0.0 0.0 0.00 0.00 0.00 99 1025.8
20210518084620 50 110 0.0 0.0 0.00 0.00 0.00 99 1025.8
20210518084118 50 110 0.0 0.0 0.00 0.00 0.00 99 1025.8
20210518083609 48 110 0.0 0.0 0.00 0.00 0.00 99 1025.5
20210518083058 48 110 0.0 0.0 0.00 0.00 0.00 99 1025.5
20210518082556 49 110 0.0 0.0 0.00 0.00 0.00 99 1025.5
20210518082054 49 110 0.0 0.0 0.00 0.00 0.00 99 1025.5
20210518081549 49 110 0.0 0.0 0.00 0.00 0.00 98 1025.1
20210518081044 51 110 0.0 0.0 0.00 0.00 0.00 98 1025.1
20210518080541 51 110 0.0 0.0 0.00 0.00 0.00 98 1025.5
20210518080035 50 110 0.0 0.0 0.00 0.00 0.00 98 1025.5
20210518075535 51 110 0.0 0.0 0.00 0.00 0.00 98 1025.1
20210518075033 51 110 0.0 0.0 0.00 0.00 0.00 97 1025.5
20210518074531 51 110 0.0 0.0 0.00 0.00 0.00 97 1025.1
20210518074025 52 109 0.0 0.0 0.00 0.00 0.00 97 1025.1
20210518073522 52 109 0.0 0.0 0.00 0.00 0.00 97 1025.1
20210518073017 52 108 0.0 0.0 0.00 0.00 0.00 97 1025.1
20210518072512 52 91 0.0 0.0 0.00 0.00 0.00 97 1025.1
20210518072008 52 124 0.0 0.0 0.00 0.00 0.00 97 1025.1
20210518071501 52 133 0.0 0.0 0.00 0.00 0.00 98 1025.1
20210518070958 51 181 0.0 0.0 0.00 0.00 0.00 98 1025.5
20210518070453 50 188 0.0 0.0 0.00 0.00 0.00 96 1025.5
20210518065948 50 211 0.0 0.0 0.00 0.00 0.00 96 1025.5
20210518065440 51 211 0.0 0.0 0.00 0.00 0.00 95 1025.5
20210518064937 51 211 0.0 0.0 0.00 0.00 0.00 95 1025.5
20210518064436 51 211 0.0 0.0 0.00 0.00 0.00 94 1025.5
20210518063936 52 194 0.0 0.0 0.00 0.00 0.00 93 1025.5
20210518063433 53 127 0.0 0.0 0.00 0.00 0.00 93 1025.1
20210518062928 53 106 0.0 0.0 0.00 0.00 0.00 93 1025.1
20210518062425 53 101 0.0 0.0 0.00 0.00 0.00 93 1025.5
20210518061922 53 143 0.0 0.0 0.00 0.00 0.00 93 1025.5
20210518061418 53 143 0.0 0.0 0.00 0.00 0.00 93 1025.5
20210518060916 53 165 0.0 0.0 0.00 0.00 0.00 94 1025.5
20210518060413 53 208 0.0 0.0 0.00 0.00 0.00 94 1025.5
20210518055909 53 215 0.0 0.0 0.00 0.00 0.00 93 1025.1
20210518055405 53 189 0.0 0.0 0.00 0.00 0.00 93 1025.5
20210518054903 53 196 0.0 0.0 0.00 0.00 0.00 94 1025.5
20210518054359 53 209 0.0 0.0 0.00 0.00 0.00 94 1025.5
20210518053853 53 230 0.0 0.0 0.00 0.00 0.00 94 1025.1
20210518053350 53 231 0.0 0.0 0.00 0.00 0.00 93 1025.1
20210518052849 52 232 0.0 0.0 0.00 0.00 0.00 92 1025.5
20210518052341 53 232 0.0 0.0 0.00 0.00 0.00 92 1025.5
20210518051840 53 232 0.0 0.0 0.00 0.00 0.00 91 1025.5
20210518051334 53 232 0.0 0.0 0.00 0.00 0.00 91 1025.5
20210518050830 52 232 0.0 0.0 0.00 0.00 0.00 90 1025.1
20210518050325 53 232 0.0 0.0 0.00 0.00 0.00 89 1025.5
20210518045821 53 232 0.0 0.0 0.00 0.00 0.00 89 1025.5
20210518045318 53 229 0.0 0.0 0.00 0.00 0.00 88 1025.5
20210518044816 54 225 0.0 0.0 0.00 0.00 0.00 88 1025.5
20210518044314 54 214 0.0 0.0 0.00 0.00 0.00 86 1025.5
20210518043811 54 222 0.0 0.0 0.00 0.00 0.00 86 1025.5
20210518043303 54 225 0.0 0.0 0.00 0.00 0.00 85 1025.1
20210518042801 54 230 0.0 0.0 0.00 0.00 0.00 87 1025.5
20210518042259 54 236 0.0 0.0 0.00 0.00 0.00 87 1025.5
20210518041757 54 237 0.0 0.0 0.00 0.00 0.00 86 1025.5
20210518041256 55 236 0.0 0.0 0.00 0.00 0.00 85 1025.5
20210518040754 55 236 0.0 0.0 0.00 0.00 0.00 85 1025.5
20210518040250 55 220 0.0 0.0 0.00 0.00 0.00 84 1025.5
20210518035744 56 218 0.0 0.0 0.00 0.00 0.00 84 1025.5
20210518035244 55 239 0.0 0.0 0.00 0.00 0.00 85 1025.1
20210518034740 56 239 0.0 0.0 0.00 0.00 0.00 84 1025.5
20210518034236 56 239 0.0 0.0 0.00 0.00 0.00 83 1025.5
20210518033731 57 217 0.0 0.0 0.00 0.00 0.00 83 1025.5
20210518033223 57 217 0.0 0.0 0.00 0.00 0.00 81 1025.5
20210518032721 58 185 0.0 0.0 0.00 0.00 0.00 78 1025.5
20210518032220 59 93 0.0 0.0 0.00 0.00 0.00 77 1025.5
20210518031716 59 178 0.0 0.0 0.00 0.00 0.00 77 1025.1
20210518031212 59 182 0.0 0.0 0.00 0.00 0.00 75 1025.5
20210518030708 60 109 0.0 0.0 0.00 0.00 0.00 74 1025.1
20210518030203 60 168 0.0 0.0 0.00 0.00 0.00 74 1025.5
20210518025701 60 179 0.0 0.0 0.00 0.00 0.00 73 1025.1
20210518025153 61 177 0.0 0.0 0.00 0.00 0.00 72 1025.5
20210518024651 61 175 0.0 0.0 0.00 0.00 0.00 71 1025.1
20210518024147 61 123 0.0 0.0 0.00 0.00 0.00 72 1025.1
20210518023642 61 117 0.0 0.0 0.00 0.00 0.00 72 1025.1
20210518023138 61 119 0.0 2.6 0.00 0.00 0.00 72 1025.1
20210518022633 61 92 0.9 2.6 0.00 0.00 0.00 72 1024.8
20210518022133 61 97 0.9 2.6 0.00 0.00 0.00 72 1025.1
20210518021627 61 112 0.0 2.6 0.00 0.00 0.00 72 1024.8
20210518021122 61 121 0.0 2.6 0.00 0.00 0.00 72 1024.8
20210518020617 61 112 0.0 0.0 0.00 0.00 0.00 71 1024.8
20210518020113 62 85 0.0 0.0 0.00 0.00 0.00 71 1024.8
20210518015607 62 107 0.0 2.6 0.00 0.00 0.00 70 1024.8
20210518015105 62 121 0.0 0.0 0.00 0.00 0.00 69 1024.8
20210518014559 62 172 0.0 2.6 0.00 0.00 0.00 68 1024.5
20210518014058 63 153 0.0 2.6 0.00 0.00 0.00 68 1024.5
20210518013558 63 77 0.0 2.6 0.00 0.00 0.00 67 1024.5
20210518013053 63 100 0.0 2.6 0.00 0.00 0.00 67 1024.5
20210518012551 64 79 0.0 2.6 0.00 0.00 0.00 66 1024.5
20210518012047 64 114 0.0 2.6 0.00 0.00 0.00 64 1024.5
20210518011545 64 112 0.0 2.6 0.00 0.00 0.00 64 1024.1
20210518011041 64 117 0.0 2.6 0.00 0.00 0.00 64 1024.1
20210518010534 64 79 1.7 2.6 0.00 0.00 0.00 65 1024.5
20210518010034 64 116 0.0 2.6 0.00 0.00 0.00 66 1024.1
20210518005526 64 109 0.0 0.0 0.00 0.00 0.00 68 1024.1
20210518005022 65 112 0.0 0.0 0.00 0.00 0.00 68 1024.1
20210518004517 65 180 0.0 0.0 0.00 0.00 0.00 67 1024.5
20210518004012 65 202 0.0 0.0 0.00 0.00 0.00 66 1024.5
20210518003507 66 130 0.0 0.0 0.00 0.00 0.00 65 1024.1
20210518003005 66 106 0.0 0.0 0.00 0.00 0.00 65 1024.1
20210518002501 66 120 0.0 0.0 0.00 0.00 0.00 64 1024.1
20210518001959 66 138 0.0 0.0 0.00 0.00 0.00 63 1024.1
20210518001457 67 46 0.0 0.0 0.00 0.00 0.00 62 1024.1
20210518000951 67 95 0.0 2.6 0.00 0.00 0.00 61 1024.1
20210518000450 68 174 0.0 2.6 0.00 0.00 0.00 60 1024.1
20210517235944 68 172 0.0 2.6 0.00 0.00 0.00 60 1024.5
20210517235440 68 113 0.0 2.6 0.00 0.00 0.00 58 1024.1
20210517234938 69 156 0.0 4.3 0.00 0.00 0.00 58 1023.8
20210517234433 69 67 0.9 2.6 0.00 0.00 0.00 57 1023.8
20210517233929 69 37 0.9 4.3 0.00 0.00 0.00 57 1024.1
20210517233426 69 72 0.9 6.1 0.00 0.00 0.00 56 1023.8
20210517232917 69 64 1.7 4.3 0.00 0.00 0.00 56 1024.1
20210517232416 70 116 0.0 0.0 0.00 0.00 0.00 57 1023.8
20210517231912 70 78 0.0 4.3 0.00 0.00 0.00 56 1024.1
20210517231405 71 120 0.9 4.3 0.00 0.00 0.00 55 1024.1
20210517230904 72 41 0.0 0.0 0.00 0.00 0.00 51 1023.8
20210517230401 72 202 0.0 2.6 0.00 0.00 0.00 50 1024.1
20210517225857 72 167 0.9 4.3 0.00 0.00 0.00 50 1024.1
20210517225354 73 142 1.7 4.3 0.00 0.00 0.00 47 1024.1
20210517224849 73 180 0.0 2.6 0.00 0.00 0.00 48 1024.1
20210517224343 73 220 2.6 4.3 0.00 0.00 0.00 48 1023.8
20210517223833 73 194 0.9 4.3 0.00 0.00 0.00 47 1023.8
20210517223331 73 170 2.6 6.1 0.00 0.00 0.00 46 1023.8
20210517222829 73 180 2.6 6.1 0.00 0.00 0.00 46 1023.8
20210517222322 74 215 2.6 4.3 0.00 0.00 0.00 45 1023.8
20210517221816 74 211 0.0 0.0 0.00 0.00 0.00 47 1023.8
20210517221316 74 222 0.0 2.6 0.00 0.00 0.00 44 1023.8
20210517220815 74 165 0.0 4.3 0.00 0.00 0.00 46 1023.8
20210517220313 75 194 0.0 2.6 0.00 0.00 0.00 47 1023.8
20210517215809 74 223 0.0 2.6 0.00 0.00 0.00 48 1023.8
20210517215308 74 209 4.3 6.1 0.00 0.00 0.00 45 1023.8
20210517214806 75 205 5.2 6.1 0.00 0.00 0.00 44 1023.8
20210517214303 75 250 7.8 13.0 0.00 0.00 0.00 43 1023.8
20210517213801 76 216 3.5 4.3 0.00 0.00 0.00 45 1023.8
20210517213256 76 187 2.6 10.4 0.00 0.00 0.00 45 1023.8